Simultaneous Nadir Overpasses (SNOs) Predictions

Prediction of SNOs between METOP-A and NOAA-19 Satellite Orbit:

Table of predicted SNOs for the next 14.0 days since TLE Epoch: 3/15/2013
Index Date (METOP-A) Time (METOP-A) Lat,Lon (METOP-A) SZA (METOP-A ) Date (NOAA-19) Time (NOAA-19) Lat,Lon (NOAA-19) SZA (NOAA-19 ) Distance(km) Time Diff (sec)
1 03/20/2013 08:23:43 73.81, 47.62 73.94 03/20/2013 08:22:32 73.80, 46.08 74.02 47.92 71
2 03/20/2013 09:14:32 -73.46,-145.86 106.39 03/20/2013 09:13:31 -73.44,-145.83 106.40 3.01 61
3 03/20/2013 10:05:12 73.44, 21.42 73.58 03/20/2013 10:04:29 73.42, 21.46 73.57 2.42 43
4 03/20/2013 10:55:55 -73.39,-171.37 106.48 03/20/2013 10:55:35 -73.40,-171.27 106.47 3.48 20
5 03/20/2013 11:46:34 73.41, -3.98 73.53 03/20/2013 11:46:33 73.38, -3.97 73.50 2.96 1
6 03/20/2013 12:37:17 -73.36, 163.24 106.53 03/20/2013 12:37:39 -73.37, 163.29 106.53 1.82 22
7 03/20/2013 13:27:57 73.33, -29.49 73.43 03/20/2013 13:28:37 73.35, -29.41 73.44 2.89 40
8 03/20/2013 14:18:39 -73.34, 137.84 106.58 03/20/2013 14:19:43 -73.33, 137.85 106.60 0.50 64
9 03/20/2013 15:09:25 73.01, -55.54 73.12 03/20/2013 15:10:36 73.07, -54.29 73.10 41.08 71




NCC Satellite Simultaneous Nadir Overpasses (SNOs) Prediction Service
